Location: New Town
(33.2710°N, 90.7534°W)
Time: 11:24:46
(UTC+00:00)

Tiros 1 despin weight - Visible Passes

Search period start: 13 May 2021 00:00
Search period end: 23 May 2021 00:00
Orbit: 593 x 642 km, 48.2° (Epoch: 12 May)

Date Brightness Start Highest point End Pass type
(mag) Time Alt. Az. Time Alt. Az. Time Alt. Az.
13 May ? 02:55:40 10° W 02:59:39 27° NNW 03:03:39 10° NNE visible
13 May ? 04:40:14 10° NW 04:42:28 13° N 04:44:42 10° NNE visible
13 May ? 06:22:39 10° NNW 06:24:22 15° N 06:24:22 15° N visible
13 May ? 08:10:42 22° E 08:10:42 22° E 08:12:30 10° ESE visible
13 May ? 09:48:06 23° WSW 09:49:24 26° SW 09:53:13 10° S visible
14 May ? 01:29:30 10° WSW 01:34:06 66° NW 01:38:46 10° NE visible
14 May ? 03:13:03 10° WNW 03:16:21 19° NNW 03:19:40 10° NNE visible
14 May ? 04:57:20 10° NNW 04:59:25 13° N 05:01:31 10° NNE visible
14 May ? 06:38:40 10° NNW 06:39:02 12° NNW 06:39:02 12° NNW visible
15 May ? 01:46:17 10° W 01:50:33 36° NNW 01:54:54 10° NE visible
15 May ? 03:30:37 10° NW 03:33:12 14° N 03:35:46 10° NNE visible
15 May ? 05:13:49 10° NNW 05:16:21 14° N 05:16:59 14° NNE visible
16 May ? 02:03:28 10° WNW 02:07:11 23° NNW 02:10:55 10° NNE visible
16 May ? 03:48:02 10° NNW 03:50:08 13° N 03:52:13 10° NNE visible
16 May ? 05:29:55 10° NNW 05:32:01 17° N 05:32:01 17° N visible
17 May ? 02:20:58 10° NW 02:23:57 16° NNW 02:26:57 10° NNE visible
17 May ? 04:04:52 10° NNW 04:07:05 13° N 04:09:17 10° NE visible
17 May ? 05:45:57 10° NNW 05:47:06 16° NNW 05:47:06 16° NNW visible
18 May ? 02:38:32 10° NW 02:40:50 13° N 02:43:10 10° NNE visible
18 May ? 04:21:09 10° NNW 04:23:58 16° NNE 04:25:12 14° NNE visible
18 May ? 06:01:59 10° NW 06:02:13 11° NW 06:02:13 11° NW visible
19 May ? 02:55:44 10° NNW 02:57:47 13° N 02:59:50 10° NNE visible
19 May ? 04:37:12 10° NNW 04:40:22 21° NNE 04:40:22 21° NNE visible
20 May ? 01:28:55 10° NW 01:31:34 15° NNW 01:34:15 10° NNE visible
20 May ? 03:12:18 10° NNW 03:14:43 14° N 03:17:08 10° NE visible
20 May ? 04:53:13 10° NW 04:55:32 23° NNW 04:55:32 23° NNW visible
21 May ? 01:46:23 10° NNW 01:48:29 13° N 01:50:36 10° NNE visible
21 May ? 03:28:27 10° NNW 03:31:35 17° NNE 03:33:44 13° NE visible
21 May ? 05:09:19 10° NW 05:10:45 19° NW 05:10:45 19° NW visible
22 May ? 02:03:20 10° NNW 02:05:26 13° N 02:07:32 10° NNE visible
22 May ? 03:44:28 10° NNW 03:48:19 24° NNE 03:48:57 24° NE visible
22 May ? 05:25:34 10° NW 05:25:59 12° NW 05:25:59 12° NW visible
